• In Hungary
  • List of Countries
  • For 7 days
  • Water Temperature
  • Satellite Maps
  • Weather Map
  • News
  • Weather Widgets
  • user-avatar
    Login

    Hourly Weather Bilina

    Today, 21 February, Wednesday

    Time Temperature Precipitation Wind Pressure Humidity
    00:00 -3°C° 0 mm 2 mps 741 mmHg 77%
    01:00 -4°C° 0 mm 2 mps 741 mmHg 78%
    02:00 -4°C° 0 mm 2 mps 741 mmHg 78%
    03:00 -4°C° 0 mm 2 mps 741 mmHg 78%
    04:00 -4°C° 0 mm 2 mps 742 mmHg 79%
    05:00 -4°C° 0 mm 2 mps 742 mmHg 79%
    06:00 -5°C° 0 mm 2 mps 742 mmHg 80%
    07:00 -5°C° 0 mm 2 mps 742 mmHg 81%
    08:00 -5°C° 0 mm 3 mps 742 mmHg 76%
    09:00 -4°C° 0 mm 3 mps 743 mmHg 70%
    10:00 -2°C° 0 mm 3 mps 743 mmHg 65%
    11:00 -1°C° 0 mm 3 mps 743 mmHg 61%
    12:00 -1°C° 0 mm 4 mps 743 mmHg 57%
    13:00 0°C° 0 mm 4 mps 743 mmHg 54%
    14:00 0°C° 0 mm 4 mps 743 mmHg 55%
    15:00 0°C° 0 mm 4 mps 742 mmHg 56%
    16:00 0°C° 0 mm 4 mps 742 mmHg 58%
    17:00 -1°C° 0 mm 4 mps 742 mmHg 63%
    18:00 -3°C° 0 mm 4 mps 743 mmHg 69%
    19:00 -4°C° 0 mm 3 mps 743 mmHg 74%
    20:00 -4°C° 0 mm 3 mps 743 mmHg 75%
    21:00 -4°C° 0 mm 3 mps 743 mmHg 77%
    22:00 -5°C° 0 mm 3 mps 743 mmHg 78%
    23:00 -5°C° 0 mm 3 mps 743 mmHg 78%

    Tomorrow, 22 February, Thursday

    Time Temperature Precipitation Wind Pressure Humidity
    00:00 -5°C° 0 mm 3 mps 743 mmHg 78%
    01:00 -5°C° 0 mm 3 mps 743 mmHg 78%
    02:00 -5°C° 0 mm 3 mps 743 mmHg 77%
    03:00 -6°C° 0 mm 3 mps 743 mmHg 76%
    04:00 -6°C° 0 mm 3 mps 743 mmHg 74%
    05:00 -6°C° 0 mm 3 mps 743 mmHg 73%
    06:00 -6°C° 0 mm 3 mps 743 mmHg 71%
    07:00 -6°C° 0 mm 3 mps 743 mmHg 70%
    08:00 -5°C° 0 mm 4 mps 743 mmHg 65%
    09:00 -4°C° 0 mm 4 mps 743 mmHg 59%
    10:00 -4°C° 0 mm 4 mps 743 mmHg 54%
    11:00 -4°C° 0 mm 5 mps 743 mmHg 50%
    12:00 -2°C° 0 mm 5 mps 743 mmHg 46%
    13:00 -1°C° 0 mm 5 mps 743 mmHg 43%
    14:00 -1°C° 0 mm 5 mps 742 mmHg 43%
    15:00 -1°C° 0 mm 5 mps 742 mmHg 43%
    16:00 -1°C° 0 mm 5 mps 742 mmHg 43%
    17:00 -2°C° 0 mm 4 mps 742 mmHg 48%
    18:00 -3°C° 0 mm 4 mps 742 mmHg 52%
    19:00 -4°C° 0 mm 4 mps 743 mmHg 56%
    20:00 -5°C° 0 mm 4 mps 743 mmHg 57%
    21:00 -5°C° 0 mm 4 mps 743 mmHg 59%
    22:00 -5°C° 0 mm 4 mps 743 mmHg 60%
    23:00 -6°C° 0 mm 3 mps 743 mmHg 60%

    Day after tomorrow, 23 February, Friday

    Time Temperature Precipitation Wind Pressure Humidity
    00:00 -6°C° 0 mm 3 mps 743 mmHg 60%
    01:00 -6°C° 0 mm 3 mps 743 mmHg 60%
    02:00 -6°C° 0 mm 3 mps 743 mmHg 60%
    03:00 -7°C° 0 mm 3 mps 743 mmHg 59%
    04:00 -7°C° 0 mm 3 mps 743 mmHg 59%
    05:00 -7°C° 0 mm 3 mps 743 mmHg 60%
    06:00 -7°C° 0 mm 3 mps 743 mmHg 61%
    07:00 -7°C° 0 mm 3 mps 743 mmHg 61%
    08:00 -6°C° 0 mm 3 mps 744 mmHg 59%
    09:00 -7°C° 0 mm 4 mps 744 mmHg 56%
    10:00 -5°C° 0 mm 4 mps 744 mmHg 54%
    11:00 -4°C° 0 mm 4 mps 744 mmHg 51%
    12:00 -3°C° 0 mm 4 mps 744 mmHg 48%
    13:00 -2°C° 0 mm 5 mps 744 mmHg 45%
    14:00 -2°C° 0 mm 5 mps 744 mmHg 45%
    15:00 -2°C° 0 mm 5 mps 744 mmHg 45%
    16:00 -1°C° 0 mm 5 mps 744 mmHg 45%
    17:00 -4°C° 0 mm 5 mps 744 mmHg 48%
    18:00 -4°C° 0 mm 4 mps 744 mmHg 51%
    19:00 -5°C° 0 mm 4 mps 745 mmHg 54%
    20:00 -5°C° 0 mm 4 mps 745 mmHg 55%
    21:00 -5°C° 0 mm 4 mps 745 mmHg 55%
    22:00 -7°C° 0 mm 4 mps 746 mmHg 55%
    23:00 -7°C° 0 mm 4 mps 746 mmHg 55%

    24 February, Saturday

    Time Temperature Precipitation Wind Pressure Humidity
    00:00 -7°C° 0 mm 4 mps 746 mmHg 54%
    01:00 -7°C° 0 mm 4 mps 746 mmHg 53%
    02:00 -7°C° 0 mm 4 mps 746 mmHg 53%
    03:00 -7°C° 0 mm 3 mps 746 mmHg 53%
    04:00 -7°C° 0 mm 3 mps 746 mmHg 53%
    05:00 -8°C° 0 mm 4 mps 746 mmHg 51%
    06:00 -8°C° 0 mm 4 mps 746 mmHg 50%
    07:00 -8°C° 0 mm 4 mps 747 mmHg 49%
    08:00 -7°C° 0 mm 5 mps 747 mmHg 46%
    09:00 -7°C° 0 mm 5 mps 747 mmHg 43%
    10:00 -6°C° 0 mm 6 mps 748 mmHg 41%
    11:00 -5°C° 0 mm 6 mps 748 mmHg 38%
    12:00 -4°C° 0 mm 6 mps 748 mmHg 35%
    13:00 -4°C° 0 mm 6 mps 747 mmHg 32%
    14:00 -4°C° 0 mm 6 mps 747 mmHg 31%
    15:00 -4°C° 0 mm 6 mps 747 mmHg 31%
    16:00 -4°C° 0 mm 6 mps 747 mmHg 30%
    17:00 -5°C° 0 mm 6 mps 747 mmHg 35%
    18:00 -6°C° 0 mm 5 mps 747 mmHg 39%
    19:00 -7°C° 0 mm 5 mps 747 mmHg 43%
    20:00 -7°C° 0 mm 5 mps 748 mmHg 46%
    21:00 -8°C° 0 mm 5 mps 748 mmHg 49%
    22:00 -8°C° 0 mm 5 mps 748 mmHg 52%
    23:00 -8°C° 0 mm 5 mps 748 mmHg 51%

    25 February, Sunday

    Time Temperature Precipitation Wind Pressure Humidity
    00:00 -10°C° 0 mm 5 mps 748 mmHg 51%
    01:00 -10°C° 0 mm 5 mps 748 mmHg 51%
    02:00 -11°C° 0 mm 5 mps 748 mmHg 50%
    03:00 -11°C° 0 mm 5 mps 748 mmHg 50%
    04:00 -12°C° 0 mm 5 mps 748 mmHg 49%
    05:00 -12°C° 0 mm 5 mps 748 mmHg 50%
    06:00 -12°C° 0 mm 5 mps 748 mmHg 51%
    07:00 -13°C° 0 mm 5 mps 748 mmHg 52%
    08:00 -12°C° 0 mm 5 mps 748 mmHg 50%
    09:00 -12°C° 0 mm 5 mps 749 mmHg 48%
    10:00 -11°C° 0 mm 5 mps 749 mmHg 45%
    11:00 -11°C° 0 mm 5 mps 749 mmHg 43%
    12:00 -10°C° 0 mm 5 mps 748 mmHg 41%
    13:00 -8°C° 0 mm 5 mps 748 mmHg 38%
    14:00 -8°C° 0 mm 5 mps 748 mmHg 39%
    15:00 -8°C° 0 mm 5 mps 748 mmHg 39%
    16:00 -8°C° 0 mm 5 mps 748 mmHg 39%
    17:00 -10°C° 0 mm 5 mps 748 mmHg 42%
    18:00 -10°C° 0 mm 5 mps 748 mmHg 45%
    19:00 -11°C° 0 mm 5 mps 748 mmHg 47%
    20:00 -10°C° 0 mm 4 mps 748 mmHg 49%
    21:00 -10°C° 0 mm 4 mps 748 mmHg 51%
    22:00 -10°C° 0 mm 4 mps 748 mmHg 52%
    23:00 -11°C° 0 mm 4 mps 748 mmHg 54%

    26 February, Monday

    Time Temperature Precipitation Wind Pressure Humidity
    00:00 -11°C° 0 mm 4 mps 748 mmHg 55%
    01:00 -10°C° 0 mm 3 mps 748 mmHg 56%
    02:00 -11°C° 0 mm 4 mps 748 mmHg 58%
    03:00 -12°C° 0 mm 4 mps 748 mmHg 59%
    04:00 -12°C° 0 mm 4 mps 748 mmHg 60%
    05:00 -12°C° 0 mm 4 mps 748 mmHg 61%
    06:00 -12°C° 0 mm 4 mps 748 mmHg 62%
    07:00 -14°C° 0 mm 4 mps 748 mmHg 63%
    08:00 -12°C° 0 mm 4 mps 748 mmHg 59%
    09:00 -11°C° 0 mm 4 mps 748 mmHg 55%
    10:00 -12°C° 0 mm 5 mps 748 mmHg 51%
    11:00 -11°C° 0 mm 5 mps 748 mmHg 47%
    12:00 -10°C° 0 mm 5 mps 747 mmHg 43%
    13:00 -10°C° 0 mm 5 mps 747 mmHg 39%
    14:00 -10°C° 0 mm 5 mps 746 mmHg 38%
    15:00 -10°C° 0 mm 5 mps 746 mmHg 37%
    16:00 -10°C° 0 mm 5 mps 746 mmHg 36%
    17:00 -11°C° 0 mm 5 mps 746 mmHg 37%
    18:00 -11°C° 0 mm 5 mps 746 mmHg 39%
    19:00 -11°C° 0 mm 4 mps 745 mmHg 40%
    20:00 -11°C° 0 mm 4 mps 745 mmHg 42%
    21:00 -11°C° 0 mm 4 mps 745 mmHg 43%
    22:00 -11°C° 0 mm 4 mps 745 mmHg 45%
    23:00 -12°C° 0 mm 4 mps 745 mmHg 46%
    Show more